Regional Weather Roundup
Issued by NWS

Home | Current Version | Previous Version | Text Only | Print | Product List | Glossary Off
Versions: 1 2 3 4 5 6 7 8 9 10 11 12 13 14 15 16 17 18 19 20 21 22 23 24 25 26 27

000
ASUS45 KBOU 240007
RWRCO

WEATHER ROUNDUP FOR COLORADO
NATIONAL WEATHER SERVICE DENVER/BOULDER CO
600 PM MDT SAT SEP 23 2017

NOTE: "FAIR" INDICATES FEW OR NO CLOUDS BELOW 12000 FEET WITH NO
SIGNIFICANT WEATHER AND/OR OBSTRUCTIONS TO VISIBILITY.

COZ001>005-013-030-031-240100-
...NORTHWEST COLORADO...

CITY           SKY/WX    TMP DP  RH WIND       PRES   REMARKS
CRAIG          PTSUNNY   54  40  59 E10       29.88S
HAYDEN         PTSUNNY   51  40  65 E12       29.91F
MEEKER         CLOUDY    56  39  53 E5        29.87S
RABBIT EARS PA CLOUDY    32  32 100 S9        30.06R WCI  24
STEAMBOAT SPGS FAIR      46  40  81 NW5       29.92R
WALDEN         CLOUDY    39  36  87 E13       29.98F
$$

COZ006>008-011-240100-
...WEST CENTRAL VALLEYS...

CITY           SKY/WX    TMP DP  RH WIND       PRES   REMARKS
GRAND JUNCTION PTSUNNY   54  47  77 SE9       29.83F
MONTROSE       FAIR      62  40  44 SE13      29.83F
EAGLE          PTSUNNY   50  41  71 NE6       29.93S
RIFLE          FAIR      61  41  47 SE10      29.84S
DELTA          NOT AVBL
NUCLA          PTSUNNY   54  41  62 NW6       29.88R
$$

COZ017>023-064>068-240100-
...SOUTHWEST COLORADO...

CITY           SKY/WX    TMP DP  RH WIND       PRES   REMARKS
DURANGO        FAIR      52  49  89 E12       29.93R
CORTEZ         PTSUNNY   63  44  50 SE8       29.82S
PAGOSA SPRINGS RAIN      47  46  95 E3        30.00R
TELLURIDE      PTSUNNY   48  32  52 SE8       30.01R
WOLF CREEK PAS HVY SNOW  32  32 100 SW23G40   30.16S VSB<1/4 WCI  19
$$

COZ009-010-012-014-032>034-037-058>063-240100-
...CENTRAL COLORADO...

CITY           SKY/WX    TMP DP  RH WIND       PRES   REMARKS
ASPEN          LGT RAIN  44  38  79 SE14      29.93F
BUENA VISTA    RAIN      50  47  90 CALM      29.97R
COPPER MTN     CLOUDY    39  32  75 MISG      30.10F
BERTHOUD PASS  SNOW      27  18  69 NW9       30.15S VSB 1/4 WCI  17
COTTONWOOD PAS   N/A     48  45  87 SE7       30.03S
GUNNISON       PTSUNNY   49  39  68 N7        29.96S
KREMMLING      CLOUDY    48  41  76 E9        29.99S
LEADVILLE      CLOUDY    38  36  92 N5        30.02S
MONARCH PASS   FOG       34  34 100 SW13      30.23R VSB<1/4 WCI  25
SALIDA         CLOUDY    53  50  91 SE3       30.02R
SUNLIGHT       NOT AVBL
WILKERSON PASS RAIN      39  37  93 SW7       30.15R VSB<1/4
$$

COZ069>075-240100-
...SAN LUIS VALLEY/SANGRE DE CRISTO MOUNTAINS...

CITY           SKY/WX    TMP DP  RH WIND       PRES   REMARKS
ALAMOSA        LGT RAIN  50  46  86 SE9       29.93S
DEL NORTE      PTSUNNY   48  40  74 W12       29.95F
LA VETA PASS   HVY RAIN  45  41  87 SW17G36   30.16S
SAGUACHE       CLOUDY    50  45  81 S6        29.95S
$$

COZ035-036-038>040-240100-
...NORTHERN COLORADO FRONT RANGE...

CITY           SKY/WX    TMP DP  RH WIND       PRES   REMARKS
DENVER INTL AP RAIN      47  44  90 N17       29.96S FOG
DMNS CITY PARK   N/A     47  46  99 N12G18    29.98R
AURORA         RAIN      46  46  99 N13       29.97R FOG
FRONT RANGE AP LGT RAIN  48  46  93 N17       29.96F
ERIE MUNI ARPT HVY RAIN  47  46  94 NE9       30.02S
BOULDER MUN AP LGT RAIN  46  46 100 CALM      29.98R
CENTENNIAL     LGT RAIN  46  46 100 N17G23    29.98R FOG
BROOMFIELD     RAIN      46  45  93 N12       29.98S VSB 1
FORT COLLINS   RAIN      47  46  97 NE9       29.98S
LONGMONT       RAIN      50  47  92 NE8       29.99S
$$

COZ041-046-047-076>085-087-088-240100-
...PIKES PEAK/PALMER DIVIDE AND SOUTHERN FOOTHILLS...

CITY           SKY/WX    TMP DP  RH WIND       PRES   REMARKS
COLO. SPRINGS  CLOUDY    57  55  93 SE20G28   29.88F THUNDER
A. F. ACADEMY  TSTM      46  46 100 N25G31    29.93R FOG
SCHRIEVER AFB  MOCLDY    55  53  95 E16G28    29.89F
CHEYENNE MTN   TSTM      54  53  98 SE17G28   29.85S
ELLICOTT         N/A    N/A N/A N/A SE18G31   29.87F
FALCON         CLOUDY    54  53  97 SE15G25   29.92F FOG
FORT CARSON    CLOUDY    58  57  96 SE15G24   29.84F THUNDER
LIMON            N/A    N/A N/A N/A MISG      29.88F
MONUMENT HILL  RAIN      43  41  93 NW20G30   29.99R
CANON CITY     RAIN      59  57  94 W8        29.82F
WALSENBURG     CLOUDY    61  55  82 S18G28    29.82R
TRINIDAD       FAIR      64  50  60 S17G25    29.83F
$$

COZ042>045-048>051-090-091-240100-
...NORTHEAST COLORADO...

CITY           SKY/WX    TMP DP  RH WIND       PRES   REMARKS
GREELEY ARPT   RAIN      47  45  93 N10       29.99S
AKRON          LGT RAIN  49  48  97 N13       29.91F FOG
BURLINGTON     MOCLDY    58  56  93 E5        29.92R
WRAY           LGT RAIN  55  55 100 NW5       29.91R
YUMA           RAIN      52  52 100 NE8       29.90F
STERLING       RAIN      48  46  93 N12       29.94F
HOLYOKE        RAIN      59  55  88 N9        29.93F
FORT MORGAN    RAIN      48  46  91 N12       29.95F
$$

COZ086-089-092>099-240100-
...SOUTHEAST COLORADO...

CITY           SKY/WX    TMP DP  RH WIND       PRES   REMARKS
PUEBLO         CLOUDY    64  57  78 E15G24    29.77F
LA JUNTA       CLOUDY    63  60  90 SE16      29.79F
LAMAR          LGT RAIN  63  61  93 E8        29.85F FOG
SPRINGFIELD      N/A     60  60 100 S9        29.91S
$$




USA.gov is the U.S. government's official web portal to all federal, state and local government web resources and services.